Location: Le Domaine
(47.0333°N, 76.5361°W)
Time: 08:40:06
(UTC-05:00)

Transit 2A Rocket - Pass Details

Date: 23 November 2019
Orbit: 594 x 909 km, 66.7° (Epoch: 11 December)

Event Time Altitude Azimuth Distance (km) Brightness Sun altitude
Exits shadow 03:30:37 12° 62° (ENE) 1,866 7.6 -38.7°
Drops below altitude 10° 03:31:09 10° 68° (ENE) 1,974 7.8 -38.6°
Sets 03:34:25 0° 93° (E) 2,919 8.9 -38.0°
